Theta_e
347 348 346 348 347 346 348 349 348 348 350 347 344 344 345 346 347 348 347 348 345 344 344 341 338 338 338 334 333 331 331 341 345 343 338 337 336 337 337 343 345 344 344
349 349 349 349 346 348 351 350 351 348 349 347 344 343 343 345 347 348 347 349 348 344 342 341 339 338 342 342 337 334 331 332 340 344 344 344 342 341 337 335 338 335 332
350 350 348 348 348 347 351 350 351 353 350 347 345 344 342 342 345 347 348 348 350 349 342 341 340 342 342 343 343 343 340 336 332 333 341 342 344 341 338 335 333 334 334
351 350 348 347 347 351 349 350 347 349 350 347 345 344 341 341 342 347 348 347 348 348 349 347 342 342 345 345 344 344 344 343 341 336 333 332 334 335 334 335 335 335 335
350 350 348 347 348 348 349 350 351 348 350 349 348 346 344 343 344 344 344 346 348 347 347 348 347 345 343 345 346 346 345 344 343 342 341 340 340 339 339 339 339 339 339
350 350 349 349 350 349 349 350 352 349 349 351 349 347 346 345 344 343 343 345 345 347 347 348 350 350 346 344 345 346 346 344 344 344 343 342 342 342 343 343 343 343 343
350 352 352 350 351 351 352 352 354 352 350 349 350 350 347 348 348 347 343 343 342 342 345 345 347 347 348 347 346 345 346 346 346 345 344 344 344 343 343 344 344 344 344
353 352 353 353 352 352 353 352 352 353 351 351 350 350 351 346 345 346 346 344 343 342 342 344 346 348 350 347 349 350 349 346 345 345 345 345 346 346 346 345 345 345 345
354 354 352 350 349 348 351 351 351 353 352 349 350 351 352 349 343 343 344 345 342 342 343 344 345 345 347 349 347 347 347 344 342 343 342 342 343 346 347 347 347 347 347
353 353 354 349 349 349 350 349 350 351 351 350 349 350 350 348 350 347 342 346 347 348 346 344 343 344 346 346 346 345 345 346 344 341 341 342 344 344 347 348 348 348 348
355 356 355 355 355 355 350 351 351 351 351 351 349 348 349 351 351 352 350 344 347 347 347 347 346 344 345 347 346 348 347 346 345 342 340 342 342 343 343 349 349 348 349
347 349 352 353 354 353 355 353 352 352 352 351 350 349 349 350 350 350 351 348 345 344 346 347 345 345 344 345 347 346 345 343 344 343 342 342 343 343 344 347 347 345 347
334 335 339 346 347 350 351 351 352 353 353 352 351 351 350 349 348 347 347 347 347 345 345 347 347 347 346 345 343 344 345 343 343 343 342 343 343 345 344 345 346 346 345
335 337 339 340 340 341 344 347 351 351 350 351 353 352 350 350 350 349 348 348 350 347 345 345 346 347 347 347 347 346 346 344 343 343 343 342 344 342 345 346 345 346 343
335 335 337 338 338 339 340 341 343 348 350 350 351 352 353 352 349 350 350 349 349 352 348 345 346 346 347 348 348 348 348 349 346 343 342 342 341 345 345 346 345 345 344
336 336 336 336 337 337 337 338 340 342 344 348 350 350 351 353 352 351 350 350 350 350 351 345 345 344 346 348 348 348 349 349 348 343 342 343 346 345 344 345 345 345 344
334 335 335 335 335 335 336 336 337 338 340 342 346 349 349 350 353 352 350 349 351 351 356 349 347 346 348 348 349 347 348 348 348 348 345 346 347 346 346 344 344 343 345
333 333 334 333 334 336 335 335 335 335 337 339 341 345 349 349 350 352 351 351 350 350 351 353 349 349 349 349 351 351 350 345 347 348 348 346 345 346 346 344 345 344 345
334 334 334 334 333 330 331 333 333 335 336 338 340 342 345 348 349 350 351 351 350 350 349 349 350 350 349 349 350 351 351 350 347 348 348 348 346 346 345 344 345 345 346
334 333 332 330 328 328 328 331 333 334 334 336 339 341 343 346 348 349 351 351 350 349 347 347 347 347 346 346 350 349 350 350 349 348 348 347 347 344 344 345 345 347 347
334 332 330 327 326 326 324 325 327 328 332 334 336 340 341 343 345 347 349 349 348 348 346 344 343 343 343 343 348 349 349 347 347 349 348 347 347 348 349 347 346 346 347
332 332 328 325 326 323 321 324 330 329 329 332 335 337 340 342 343 344 347 345 346 346 345 340 339 341 344 346 349 347 349 347 348 346 350 348 346 347 348 349 349 347 347
333 331 325 326 326 321 320 321 323 327 329 331 333 337 340 341 343 343 344 346 345 341 340 342 343 341 342 343 343 348 349 349 348 346 350 348 347 347 347 347 349 349 348
332 329 324 324 324 321 319 319 322 325 330 331 333 337 339 342 342 343 344 342 341 341 339 338 336 340 343 344 342 346 349 349 350 350 351 350 346 347 348 347 348 348 348
330 326 325 324 321 320 320 320 318 320 328 332 336 338 339 341 341 341 342 343 343 343 340 338 338 339 340 340 343 348 349 350 352 351 349 350 347 346 346 346 348 348 348
327 324 324 322 320 323 321 322 315 322 328 334 338 339 338 338 341 341 342 343 344 344 342 341 341 340 341 341 336 337 341 350 350 352 349 350 348 346 348 345 346 348 346
Wind_Speed
9 9 8 8 7 7 7 7 7 7 7 8 10 12 12 12 11 10 10 13 13 10 8 8 9 9 9 10 11 11 11 12 12 12 11 11 11 11 11 12 12 12 12
11 10 11 11 10 9 7 8 8 7 8 9 11 12 14 15 14 12 11 11 10 9 9 10 9 10 9 10 11 11 11 12 12 13 13 13 13 13 14 14 15 15 14
13 13 13 13 12 12 10 10 8 8 9 11 12 14 14 16 17 15 13 12 9 11 11 11 11 11 10 11 12 12 12 12 13 15 16 16 16 17 16 15 15 15 15
15 15 15 16 14 11 12 11 12 11 11 12 14 14 16 16 17 17 16 15 14 13 11 13 16 14 13 13 13 13 14 13 13 14 15 16 18 18 17 16 16 16 16
17 17 17 17 16 16 15 15 14 13 13 14 14 15 17 18 19 20 19 19 18 17 16 15 17 18 17 17 16 16 15 15 14 14 14 15 16 17 17 17 16 17 17
18 18 18 19 19 19 18 16 16 16 15 15 15 15 17 18 19 20 22 23 23 22 19 18 16 16 18 20 20 19 17 17 18 17 16 17 17 17 17 17 17 17 18
19 19 20 20 21 22 21 19 18 18 18 18 15 18 20 20 21 22 23 24 25 25 23 22 21 21 19 19 18 21 21 20 20 20 20 21 21 21 20 21 21 20 20
21 23 23 24 24 23 24 23 22 21 20 19 17 16 10 14 21 21 21 24 25 24 24 25 24 23 23 22 20 19 20 19 20 22 23 24 26 27 27 27 26 25 24
19 23 25 26 28 26 26 26 26 24 22 23 18 15 5 9 12 11 14 17 20 22 24 24 24 24 24 24 24 23 26 27 25 24 23 23 23 22 25 28 29 28 26
19 19 22 24 27 27 29 28 27 27 25 24 20 23 24 23 11 10 17 13 13 15 18 21 21 22 23 23 24 24 24 24 25 25 24 22 20 20 19 20 22 24 26
20 20 21 21 22 23 26 27 28 27 29 29 27 22 23 23 23 17 12 17 20 16 15 15 16 17 21 22 22 22 23 24 29 29 25 23 21 22 21 19 20 21 22
19 19 20 21 21 22 22 24 28 29 30 31 30 28 27 20 18 19 14 18 21 23 20 19 19 20 19 19 21 24 24 25 24 27 25 23 23 24 23 22 21 20 20
22 21 20 21 23 24 24 25 25 26 27 29 31 32 33 32 30 31 26 20 16 21 21 22 21 22 22 22 23 24 24 22 20 23 24 24 23 23 24 25 23 22 21
21 20 21 21 22 24 26 27 28 30 29 29 29 33 36 35 33 32 32 24 15 18 23 24 21 21 21 22 21 20 20 21 17 18 21 21 23 26 27 29 27 24 22
19 20 20 22 22 23 24 26 29 31 31 30 31 32 33 34 36 36 33 32 24 15 14 22 24 23 21 20 21 20 19 19 20 22 24 26 25 24 22 24 27 25 23
18 19 19 20 22 23 24 25 28 30 32 34 32 31 32 32 34 35 38 31 28 29 16 29 26 23 22 20 20 19 20 19 21 22 23 24 23 22 21 20 23 25 23
19 20 21 22 23 25 25 26 28 31 34 34 34 35 34 32 31 32 34 36 33 30 18 29 31 29 23 23 26 23 22 21 23 25 25 25 25 24 22 22 22 23 23
19 20 22 24 26 26 29 32 33 33 34 35 35 36 38 35 33 32 31 31 33 31 29 27 30 27 28 28 27 25 25 25 23 23 26 25 27 27 24 23 24 25 24
21 22 23 26 28 31 36 38 39 38 38 38 37 37 38 37 35 32 31 31 30 32 29 29 29 26 29 26 28 25 25 25 24 24 24 25 27 27 26 23 24 25 25
21 21 23 26 32 35 40 42 42 42 41 40 39 40 39 39 37 35 33 31 30 29 26 28 24 24 26 23 28 26 25 26 26 24 26 25 24 27 28 26 24 27 27
19 20 24 29 33 37 39 43 43 44 43 41 41 39 39 40 41 38 33 31 27 25 25 25 23 24 24 26 23 22 26 26 25 24 24 22 23 24 25 27 28 28 29
20 21 26 31 35 38 41 42 42 37 37 38 36 36 35 35 41 41 40 35 27 28 26 22 22 22 24 23 24 23 22 24 15 23 22 23 23 23 22 21 22 28 31
21 21 27 32 37 39 40 43 40 34 33 34 32 27 29 30 33 34 32 37 40 30 30 24 26 27 25 29 28 27 25 24 22 20 20 21 22 24 23 21 21 23 26
19 22 27 33 37 40 46 42 39 29 28 28 28 28 26 27 29 30 26 22 27 33 38 36 35 31 28 25 28 29 26 24 23 22 15 17 21 21 20 20 20 23 26
20 23 27 34 37 45 46 37 37 25 23 29 25 25 25 25 25 27 24 22 24 25 27 29 29 31 34 31 28 22 24 20 15 22 25 23 20 21 21 20 19 21 24
20 24 25 33 38 48 42 32 29 21 18 21 23 24 26 26 23 25 26 25 23 25 23 22 21 28 25 26 28 27 31 20 18 14 20 22 21 20 14 21 19 18 19
Wind_Direction
237 240 242 247 253 259 256 266 264 264 265 265 262 254 255 259 266 274 289 291 283 257 252 251 256 265 266 265 264 258 256 254 270 269 265 262 264 264 263 264 272 273 266
238 242 244 247 250 252 257 251 255 251 254 256 256 253 253 256 259 266 278 289 283 254 246 256 256 266 270 272 272 270 267 259 254 266 273 271 276 269 268 266 267 270 270
243 246 250 252 248 240 249 249 249 254 259 255 254 253 254 255 255 260 264 267 265 261 249 254 252 257 262 266 272 277 277 270 264 255 257 265 264 271 270 271 270 268 267
246 249 254 255 253 247 241 249 241 247 251 257 256 251 251 252 252 253 256 257 256 258 256 259 255 249 254 259 264 272 278 277 274 271 268 266 266 269 271 271 271 270 271
241 247 256 261 259 255 248 245 242 242 253 252 255 253 249 250 251 252 253 252 251 253 256 258 259 255 247 254 258 262 269 274 274 273 272 273 271 271 273 273 274 276 274
247 241 249 254 258 258 254 245 245 242 243 247 257 255 254 253 252 251 252 251 251 251 251 251 250 257 254 252 254 254 253 258 265 269 270 269 269 271 273 274 274 276 278
250 249 250 248 245 246 251 251 245 252 254 245 248 255 256 253 253 254 253 251 252 249 250 250 249 251 253 258 261 255 252 252 257 262 264 268 269 268 269 270 272 274 277
255 254 252 251 246 245 249 250 248 247 250 248 242 261 260 257 249 244 250 250 249 249 248 246 248 248 250 250 249 258 259 254 253 257 262 267 270 271 270 270 272 273 274
267 265 263 264 266 259 255 251 249 247 247 248 234 239 272 251 262 255 246 257 253 247 247 248 247 249 248 249 251 251 258 263 256 255 262 266 271 275 272 269 269 270 271
274 267 265 267 264 262 258 261 258 246 241 247 243 235 244 261 268 264 256 240 244 248 248 246 246 245 245 246 247 249 249 254 257 254 256 263 268 269 272 272 267 266 265
280 277 275 272 269 264 261 259 255 254 245 247 244 237 234 244 245 253 259 249 230 232 238 233 241 244 244 243 245 247 254 261 255 253 252 260 268 273 275 265 264 267 265
296 288 282 280 275 270 266 262 258 255 251 245 249 248 239 235 236 235 244 249 258 261 244 247 239 242 246 242 241 246 252 261 265 245 247 256 264 271 269 264 260 262 261
300 297 297 289 285 282 276 268 263 259 256 252 246 244 244 242 241 248 248 247 252 249 245 241 241 245 243 245 248 246 252 259 258 243 246 253 261 264 267 263 257 257 257
296 299 296 292 288 285 280 278 272 263 260 253 251 245 242 241 240 240 247 256 260 252 248 242 246 244 239 240 241 242 242 246 243 242 245 250 254 266 268 263 253 254 254
298 298 297 296 294 290 285 281 274 271 264 258 251 248 243 245 242 242 237 232 235 249 249 243 230 233 241 241 237 236 237 239 243 243 246 249 252 256 271 270 250 250 249
302 303 302 300 298 294 290 285 279 273 266 263 256 249 246 246 240 239 243 241 228 234 249 248 247 242 228 230 234 230 235 239 246 248 249 245 243 252 263 272 249 246 246
297 298 301 302 300 298 295 288 282 279 276 268 260 253 247 242 240 238 238 233 231 227 242 247 248 249 240 235 236 238 239 242 247 248 244 242 247 253 257 259 250 242 245
292 292 295 297 297 293 290 285 280 275 272 270 262 254 249 242 239 239 235 235 235 234 238 248 248 248 238 239 234 239 240 241 241 244 242 248 249 245 250 251 246 242 241
294 296 297 299 298 296 291 279 274 270 265 262 259 251 246 240 237 236 235 235 235 237 240 250 257 253 253 243 231 238 241 242 239 239 245 243 247 243 246 245 243 236 239
296 298 301 303 302 302 298 286 276 272 264 261 257 249 244 236 233 231 232 234 237 241 241 247 251 249 256 260 248 231 234 236 242 239 237 239 245 244 245 242 242 238 237
298 302 306 309 313 308 302 293 277 270 262 257 256 248 243 239 234 231 229 233 230 233 238 242 252 263 259 260 255 242 245 249 227 231 239 235 233 239 244 240 240 239 234
299 309 315 317 316 315 311 312 292 270 260 256 260 248 242 240 235 232 233 231 226 226 234 242 247 242 246 246 240 237 239 238 235 232 222 243 243 237 238 232 237 234 231
303 309 316 317 317 318 319 315 315 286 258 253 260 246 241 237 231 229 233 234 234 226 227 236 254 253 251 243 241 239 238 257 248 246 217 236 236 237 240 235 232 229 231
312 317 321 325 320 317 326 320 314 299 256 250 249 248 242 237 228 222 219 216 232 239 242 244 241 244 245 243 234 237 234 235 246 243 221 235 235 233 233 238 231 228 232
320 321 328 334 326 326 321 321 322 300 260 243 245 242 239 239 234 221 213 223 231 238 236 233 237 245 250 247 239 232 226 221 230 232 223 231 235 242 232 234 224 228 235
323 330 331 335 334 337 325 325 336 311 268 241 240 239 239 236 228 220 215 227 232 236 237 241 235 243 244 238 244 242 252 205 220 240 218 205 233 238 232 233 224 212 217